KD9BEW Weather Reports


Display with metric or nautical units.
time (UTC)temp
F
wind
direction
speed
MPH
gust
MPH
rain 1hr
in
rain 24hr
in
rain mn
in
humidity
%
barometer
mb
20260906164602 82 184 1.0 6.0 0.00 0.01 0.01 62 1020.3
20260906163109 81 209 2.0 6.0 0.00 0.01 0.01 63 1020.3
20260906161602 80 159 2.0 7.0 0.00 0.01 0.01 63 1020.3
20260906160110 81 192 1.0 5.0 0.00 0.01 0.01 67 1020.4
20260906154605 79 234 2.0 5.0 0.00 0.01 0.01 70 1020.4
20260906153104 78 213 3.0 8.0 0.00 0.01 0.01 71 1020.5
20260906151605 77 192 0.0 7.0 0.00 0.01 0.01 74 1020.5
20260906144604 73 237 1.0 4.0 0.00 0.01 0.01 80 1020.9
20260906143113 72 166 0.0 4.0 0.00 0.01 0.01 83 1020.7
20260906141602 71 0 1.0 6.0 0.00 0.01 0.01 86 1020.7
20260906140107 69 0 0.0 0.0 0.00 0.01 0.01 90 1020.6
20260906134602 67 0 0.0 4.0 0.00 0.01 0.01 94 1020.8
20260906133106 63 0 0.0 4.0 0.00 0.01 0.01 94 1020.6
20260906131601 61 40 0.0 2.0 0.00 0.01 0.01 94 1020.8
20260906130105 61 128 0.0 2.0 0.01 0.01 0.01 94 1020.8
20260906124603 59 0 0.0 0.0 0.01 0.02 0.01 94 1020.7
20260906123108 58 0 0.0 0.0 0.01 0.02 0.01 93 1020.7
20260906121606 57 0 0.0 0.0 0.01 0.02 0.01 93 1020.7
20260906120118 57 0 0.0 0.0 0.00 0.01 0.00 93 1020.6
20260906114616 57 0 0.0 0.0 0.00 0.02 0.00 93 1020.2
20260906113108 57 0 0.0 0.0 0.00 0.02 0.00 93 1020.1
20260906111618 58 0 0.0 0.0 0.00 0.02 0.00 93 1019.8
20260906110103 58 0 0.0 0.0 0.00 0.02 0.00 93 1019.4
20260906104607 58 0 0.0 0.0 0.00 0.03 0.00 93 1019.4
20260906103105 58 0 0.0 0.0 0.00 0.03 0.00 93 1019.6
20260906101604 58 0 0.0 0.0 0.00 0.03 0.00 93 1019.6
20260906100108 58 0 0.0 0.0 0.00 0.03 0.00 93 1019.5
20260906094559 59 0 0.0 0.0 0.00 0.04 0.00 92 1019.5
20260906093059 59 0 0.0 0.0 0.00 0.04 0.00 92 1019.5
20260906091615 59 0 0.0 0.0 0.00 0.04 0.00 92 1019.7
20260906090103 60 0 0.0 0.0 0.00 0.04 0.00 92 1019.8
20260906084605 60 0 0.0 0.0 0.00 0.04 0.00 92 1019.8
20260906083104 60 0 0.0 0.0 0.00 0.04 0.00 92 1019.8
20260906081603 61 0 0.0 1.0 0.00 0.04 0.00 92 1019.8
20260906080110 61 0 0.0 1.0 0.00 0.04 0.00 92 1019.5
20260906074602 61 0 0.0 0.0 0.00 0.05 0.00 92 1019.9
20260906073057 61 0 0.0 0.0 0.00 0.05 0.00 92 1019.8
20260906071608 62 0 0.0 0.0 0.00 0.05 0.00 92 1019.9
20260906070104 62 0 0.0 1.0 0.00 0.05 0.00 92 1019.6
20260906064559 61 0 0.0 0.0 0.00 0.05 0.00 92 1020.0
20260906063105 62 0 0.0 0.0 0.00 0.05 0.00 92 1019.9
20260906061606 62 0 0.0 0.0 0.00 0.05 0.00 92 1019.9
20260906060104 62 0 0.0 0.0 0.00 0.05 0.00 92 1020.0
20260906054602 62 0 0.0 0.0 0.00 0.06 0.00 92 1019.9
20260906053105 62 0 0.0 0.0 0.00 0.06 0.00 91 1019.8
20260906051609 62 0 0.0 0.0 0.00 0.06 0.00 91 1019.7
20260906050107 62 0 0.0 0.0 0.00 0.06 0.00 91 1019.5
20260906044606 63 0 0.0 0.0 0.00 0.06 0.06 91 1019.5
20260906043103 63 0 0.0 0.0 0.00 0.06 0.06 91 1019.5
20260906041614 63 0 0.0 0.0 0.00 0.06 0.06 91 1019.6
20260906040115 63 0 0.0 0.0 0.00 0.06 0.06 91 1019.7
20260906034558 63 0 0.0 0.0 0.00 0.06 0.06 91 1019.4
20260906033107 63 0 0.0 0.0 0.00 0.06 0.06 91 1019.2
20260906031600 63 0 0.0 0.0 0.00 0.06 0.06 90 1018.8
20260906030110 63 0 0.0 0.0 0.00 0.06 0.06 90 1018.9
20260906024624 63 0 0.0 0.0 0.00 0.07 0.06 90 1018.8
20260906023104 63 0 0.0 0.0 0.00 0.07 0.06 89 1018.6
20260906021609 64 0 0.0 0.0 0.00 0.07 0.06 89 1018.6
20260906020105 64 0 0.0 1.0 0.00 0.07 0.06 89 1018.4
20260906014612 64 0 0.0 0.0 0.00 0.07 0.06 88 1018.4
20260906013104 64 0 0.0 1.0 0.00 0.07 0.06 88 1018.3
20260906011604 64 0 0.0 0.0 0.00 0.07 0.06 88 1018.1
20260906010119 65 0 0.0 1.0 0.00 0.07 0.06 87 1018.0
20260906004605 66 0 0.0 0.0 0.00 0.07 0.06 86 1018.3
20260906003120 67 0 0.0 2.0 0.00 0.07 0.06 84 1018.2
20260906001608 68 0 0.0 1.0 0.00 0.07 0.06 83 1018.4
20260906000109 69 0 0.0 1.0 0.00 0.07 0.06 80 1018.4
20260905234609 70 0 0.0 3.0 0.00 0.07 0.06 79 1018.4
20260905233104 71 0 0.0 2.0 0.00 0.07 0.06 79 1018.4
20260905231608 72 312 0.0 3.0 0.00 0.07 0.06 80 1018.3
20260905230111 73 53 0.0 2.0 0.00 0.07 0.06 79 1018.2
20260905224605 73 0 0.0 2.0 0.00 0.07 0.06 79 1018.4
20260905223105 74 0 0.0 4.0 0.00 0.07 0.06 81 1018.3
20260905221603 74 53 1.0 4.0 0.00 0.07 0.06 80 1018.4
20260905220106 74 40 1.0 5.0 0.00 0.07 0.06 80 1018.4
20260905214601 75 62 0.0 5.0 0.00 0.07 0.06 80 1018.4
20260905213106 74 0 1.0 4.0 0.00 0.07 0.06 80 1018.4
20260905211606 76 62 1.0 4.0 0.00 0.07 0.06 78 1018.5
20260905210108 75 42 1.0 5.0 0.00 0.07 0.06 80 1018.5
20260905204613 74 0 0.0 2.0 0.00 0.07 0.06 82 1018.7
20260905203102 74 0 0.0 2.0 0.00 0.07 0.06 81 1018.9
20260905201604 74 0 1.0 4.0 0.00 0.07 0.06 80 1019.2
20260905200108 75 333 1.0 4.0 0.00 0.07 0.06 80 1019.1
20260905194601 74 0 0.0 4.0 0.00 0.07 0.06 82 1019.2
20260905193110 73 0 1.0 3.0 0.00 0.07 0.06 83 1019.1
20260905191611 73 26 0.0 2.0 0.00 0.07 0.06 83 1018.8
20260905184611 71 0 0.0 1.0 0.00 0.07 0.06 85 1019.2
20260905183106 71 0 0.0 1.0 0.00 0.07 0.06 86 1019.3
20260905181605 71 348 0.0 1.0 0.00 0.07 0.06 86 1019.2
20260905180107 71 0 0.0 3.0 0.00 0.07 0.06 86 1019.4
20260905174605 71 0 0.0 2.0 0.00 0.07 0.06 86 1019.3
20260905173106 71 22 0.0 2.0 0.00 0.07 0.06 86 1019.7
20260905171603 71 0 0.0 0.0 0.00 0.07 0.06 85 1019.7
20260905170105 71 0 0.0 0.0 0.00 0.07 0.06 84 1019.7